Theta_e
299 298 298 296 296 296 295 295 292 294 293 297 300 301 303 304 304 303 303 303 304 304 305 305 305 306 306 307 307 308 308 310 311 313 313 310 310 311 311 313 314 314 312 311
296 299 298 295 297 296 296 296 295 295 293 301 304 303 301 301 300 300 300 301 301 301 302 302 302 302 302 304 304 306 303 305 308 309 308 310 311 310 313 312 311 311 309 309
291 297 295 291 295 297 295 297 296 291 296 301 299 298 298 299 299 299 298 298 298 299 299 299 299 301 298 298 301 302 301 302 303 304 306 307 307 309 308 307 308 306 307 308
292 294 284 296 300 299 296 297 298 299 299 299 298 298 298 300 298 296 296 297 297 298 298 299 299 299 299 299 299 299 299 299 302 304 303 304 304 303 303 305 305 305 306 308
291 289 292 293 298 297 293 293 300 297 298 298 298 297 297 299 298 296 297 297 297 297 296 296 297 297 296 296 296 297 297 298 299 301 300 301 301 303 304 303 303 305 306 305
292 284 281 293 300 302 301 290 299 297 296 294 294 287 290 295 297 297 297 297 295 296 295 294 294 294 293 293 294 294 296 297 299 299 300 300 300 300 301 303 303 302 300 301
291 287 291 299 300 302 288 290 300 299 297 294 290 291 294 296 295 296 296 295 295 293 292 292 293 292 291 292 292 294 296 297 298 298 299 300 300 300 301 300 298 297 297 297
293 290 286 302 300 292 297 301 300 298 295 292 292 294 294 294 294 294 293 293 292 291 290 292 293 293 293 293 295 295 295 296 296 298 299 300 300 300 299 297 296 295 295 295
295 295 304 304 303 303 302 299 296 294 294 295 293 293 294 293 293 293 292 291 292 291 291 293 294 296 294 295 296 296 295 296 297 298 299 300 299 297 296 296 295 294 294 294
297 298 301 303 304 303 299 299 297 296 295 295 293 294 293 293 292 292 291 290 291 291 291 292 295 297 296 297 298 297 296 296 298 298 298 298 298 297 296 295 294 294 294 293
297 300 301 302 302 301 300 298 296 296 295 295 295 292 293 292 292 291 290 291 292 292 292 293 295 295 297 298 298 296 295 295 294 294 293 293 293 295 295 295 295 293 294 295
296 302 300 300 299 301 297 295 295 294 294 295 294 294 293 292 292 291 290 292 292 293 293 294 295 295 296 297 297 295 294 294 294 294 293 293 292 291 291 292 293 293 294 296
300 304 303 300 298 297 294 294 295 295 295 293 295 294 294 291 291 292 292 293 293 293 294 295 295 295 296 297 297 295 293 294 295 295 294 293 293 292 291 292 292 291 290 290
305 304 301 300 296 296 295 295 295 295 295 296 294 295 293 292 292 292 292 293 295 295 294 295 295 295 297 298 297 297 297 296 298 297 296 296 295 297 298 296 294 294 292 293
303 303 301 299 298 295 296 295 293 293 294 294 295 293 293 291 292 292 294 295 295 295 295 295 295 295 298 298 298 298 299 300 302 302 302 300 299 297 296 295 294 294 295 294
303 299 298 296 295 294 294 293 292 292 293 293 294 293 293 294 293 295 295 295 293 293 295 295 295 297 298 297 297 298 300 296 299 300 299 299 298 297 296 297 297 297 297 297
298 296 296 294 293 293 293 294 294 294 295 294 294 294 293 292 293 294 294 296 296 296 297 297 296 297 299 299 298 298 301 302 295 302 301 300 300 298 298 297 296 296 296 294
299 298 297 295 294 294 295 295 296 295 295 295 296 293 292 292 292 293 294 296 295 296 297 297 299 299 299 299 299 299 301 302 302 300 300 299 299 298 298 297 296 296 297 295
298 296 296 296 297 296 295 295 297 297 297 297 295 292 293 294 294 294 294 294 295 294 295 298 296 297 298 299 299 302 303 301 300 300 300 296 299 299 299 299 298 298 298 297
297 296 297 297 298 298 298 299 299 297 297 297 295 293 292 293 294 293 294 294 295 296 298 299 298 299 301 302 296 303 303 302 301 301 300 300 299 298 298 295 298 298 298 298
296 297 297 298 299 299 299 301 299 297 298 297 294 292 292 294 294 295 295 294 297 298 298 296 300 301 305 301 300 303 302 302 301 301 300 300 299 299 298 298 298 298 298 298
297 298 298 299 299 298 300 301 299 298 297 295 294 293 293 293 294 295 299 297 298 292 298 300 301 294 297 290 303 302 302 302 302 301 300 300 300 299 299 299 298 298 298 298
298 299 298 299 296 296 299 299 299 297 295 294 294 294 294 294 295 296 296 301 301 296 301 303 292 288 286 301 304 303 303 302 301 300 301 301 300 300 299 299 299 299 298 299
299 300 300 300 298 296 295 297 296 296 296 296 296 296 296 295 297 301 302 295 293 295 302 301 296 287 285 303 303 302 302 302 300 300 299 294 300 300 300 299 298 297 298 297
300 301 301 299 298 297 297 297 297 297 296 297 297 297 298 302 301 302 302 301 292 298 302 291 289 287 302 303 302 302 301 300 300 300 301 301 300 300 300 301 300 300 300 300
300 300 300 301 300 300 300 299 297 298 299 298 300 302 304 305 303 303 303 300 302 297 303 303 304 304 305 303 301 301 302 301 301 300 299 301 300 300 300 301 301 301 301 301
301 294 300 301 301 301 302 301 300 300 301 302 301 302 303 303 302 301 298 302 303 303 303 304 303 301 303 303 303 303 302 301 295 301 302 301 301 301 302 302 302 302 301 302
Wind_Speed
14 16 17 17 18 16 15 14 15 16 19 16 18 19 19 19 20 21 22 23 21 19 18 18 19 19 17 15 16 16 16 13 11 10 7 8 6 10 9 4 8 7 9 8
15 16 16 14 14 16 17 13 14 16 17 19 19 21 21 21 23 23 22 20 21 21 22 20 20 18 18 18 17 16 14 15 15 11 11 9 8 5 6 5 6 7 10 11
6 14 16 11 7 9 12 13 15 14 18 20 20 20 20 21 22 21 21 24 24 22 20 19 18 17 16 16 14 15 15 13 16 13 13 10 7 7 7 6 7 9 11 10
7 12 5 11 14 8 9 12 15 16 17 17 16 20 22 16 20 21 24 23 20 17 18 17 17 17 17 14 14 14 13 14 13 11 8 8 7 7 6 7 9 7 8 5
3 6 14 15 13 5 3 9 14 15 16 17 21 19 16 19 16 21 20 18 16 15 17 18 19 17 16 15 14 14 13 11 10 10 8 7 8 6 3 5 5 5 2 2
3 1 5 10 11 10 11 10 12 11 14 18 18 12 15 20 20 19 18 15 17 18 17 16 16 15 14 14 12 12 13 11 8 7 6 6 5 5 2 4 3 4 5 5
6 5 8 7 12 11 8 9 15 15 16 13 11 8 19 18 17 16 17 20 18 16 14 15 15 14 13 12 12 10 9 8 5 5 5 4 3 3 3 3 4 5 7 7
7 8 4 9 10 5 6 9 13 12 9 10 13 16 16 16 17 18 18 17 16 14 14 15 13 12 11 10 9 6 5 4 2 3 2 5 4 2 5 5 6 6 8 8
3 4 13 11 11 8 7 8 6 8 10 14 14 15 15 15 16 15 15 14 14 13 14 12 12 8 9 9 8 4 3 2 2 1 1 4 5 6 5 6 6 6 6 7
3 5 8 8 10 9 8 7 7 7 12 12 13 14 15 12 13 12 12 13 12 13 13 12 12 10 7 8 6 5 6 5 4 4 8 9 6 6 6 6 6 6 7 9
6 8 9 9 10 7 7 7 10 12 11 12 11 11 11 11 11 11 11 11 11 11 11 12 11 11 11 9 7 9 9 9 10 10 10 10 10 8 8 8 9 9 8 8
3 9 8 10 4 7 7 10 11 11 12 12 10 10 10 9 9 9 11 10 10 10 10 11 10 11 11 10 10 10 10 9 9 8 9 9 9 10 18 16 15 10 6 7
6 9 7 9 9 6 5 8 10 10 10 10 10 7 8 7 8 11 9 10 10 10 9 10 10 11 10 10 10 11 11 10 10 11 8 9 10 10 10 10 15 13 11 10
6 6 6 8 4 5 3 7 10 8 9 5 5 6 6 6 8 7 9 9 9 8 9 9 10 11 9 9 11 10 7 7 5 9 9 9 8 8 8 9 8 6 7 5
10 11 8 2 2 4 6 8 9 8 6 6 5 5 6 7 7 7 7 8 7 8 9 9 9 10 8 7 8 7 4 2 5 7 7 9 10 10 9 9 8 7 5 3
6 9 4 6 5 6 7 7 6 6 5 5 5 5 5 5 5 6 7 6 7 7 8 8 9 6 6 6 6 5 4 5 7 9 8 8 8 8 8 8 7 7 5 5
9 9 6 6 6 6 5 4 3 3 3 4 5 4 5 5 4 7 7 6 6 7 7 8 8 6 6 3 1 2 5 4 6 8 8 8 9 10 10 9 9 8 8 5
6 3 0 3 3 3 5 4 2 3 4 3 4 5 3 4 6 6 6 5 7 8 8 6 5 4 3 3 1 0 1 2 7 8 8 8 8 8 8 8 8 8 7 7
3 3 1 2 3 2 4 8 6 4 1 3 5 5 3 4 4 6 6 6 6 7 6 5 5 2 2 4 6 5 4 9 8 7 7 8 8 7 7 7 8 9 9 8
2 2 3 4 2 5 7 4 3 4 4 5 7 5 4 4 5 6 5 7 6 3 4 2 3 6 5 6 9 1 7 8 9 9 8 9 9 9 9 10 10 9 8 8
3 2 2 3 4 5 5 2 5 5 5 6 6 5 5 4 5 2 3 5 3 2 3 4 5 4 5 6 8 8 8 8 8 7 7 8 8 9 9 9 9 8 8 8
5 2 5 9 5 5 4 2 8 7 6 7 7 6 5 5 4 1 2 4 2 6 3 3 3 4 7 13 2 8 8 8 7 7 7 7 7 8 8 8 8 8 8 8
4 5 5 6 7 4 3 9 7 7 9 7 7 6 5 3 4 4 6 2 2 3 4 3 3 6 7 8 8 8 8 8 8 7 7 7 7 7 7 7 7 7 8 7
3 8 5 9 9 6 7 7 7 7 7 6 5 6 5 4 4 3 6 6 5 3 2 1 4 7 6 2 7 7 7 7 8 8 8 8 6 7 7 8 8 7 6 7
7 5 6 9 9 6 6 5 5 4 5 6 7 7 9 7 7 7 7 4 7 6 4 5 8 7 3 7 8 7 8 8 8 7 6 6 7 7 6 6 7 7 6 7
6 2 5 2 6 10 9 5 4 7 9 8 9 8 8 9 9 9 7 7 8 8 6 5 5 6 8 9 9 8 6 5 6 7 7 7 8 7 6 6 6 6 7 6
6 1 2 2 2 9 9 8 6 8 10 11 10 10 10 10 10 10 11 8 6 5 6 6 7 7 7 8 7 7 7 7 6 7 6 6 6 5 5 6 5 5 6 5
Wind_Direction
301 307 301 295 292 289 287 291 291 299 300 325 15 6 13 3 353 341 338 339 329 328 329 328 319 316 312 309 314 314 311 300 296 290 268 266 261 264 273 283 297 316 313 312
304 284 275 292 306 301 288 305 320 328 322 2 8 9 359 351 344 331 333 329 327 317 309 311 314 311 310 306 298 296 301 302 291 284 288 288 259 255 289 317 297 291 287 289
282 345 314 298 324 339 331 331 351 337 344 7 357 1 349 336 329 331 328 325 319 316 312 310 306 307 296 293 305 299 288 293 289 281 288 298 300 306 298 304 301 293 287 283
286 319 287 18 331 358 360 352 340 347 2 351 351 342 324 336 335 332 320 316 313 313 309 310 310 303 299 302 305 296 284 275 288 301 306 312 304 289 285 291 281 277 271 283
293 308 298 291 29 17 62 325 33 0 343 343 337 319 316 349 334 310 314 316 314 322 318 310 308 309 303 296 297 299 286 293 293 291 292 285 283 296 352 349 323 296 12 89
40 340 279 329 17 359 333 286 19 358 342 337 338 323 316 329 317 320 323 326 325 322 316 307 309 305 298 293 289 282 285 287 292 277 304 289 308 320 1 315 3 61 75 77
191 215 251 62 353 337 293 334 353 349 345 335 327 298 302 315 322 324 333 325 324 321 313 309 310 304 293 286 275 271 274 286 313 337 324 331 30 345 329 76 79 76 80 69
280 251 271 356 1 27 2 345 340 354 360 315 311 314 315 327 328 334 324 330 326 321 318 314 308 301 299 293 286 250 255 253 262 280 342 290 244 222 98 96 89 83 84 77
163 279 326 356 12 64 11 21 26 344 320 319 319 319 330 327 327 323 329 324 325 323 322 328 329 334 346 357 31 96 120 153 128 193 50 25 86 92 88 84 92 90 88 82
254 280 290 335 60 48 81 24 352 328 322 324 316 330 324 321 324 330 331 329 330 332 341 349 351 4 9 13 35 60 73 69 53 51 68 62 61 63 74 80 81 79 79 81
296 302 346 342 42 41 18 8 349 339 325 319 337 327 320 321 333 332 329 332 334 341 349 1 5 16 19 24 41 54 58 60 63 65 65 63 52 60 67 54 75 85 80 91
283 355 353 356 71 21 21 3 341 326 326 337 332 319 328 333 338 331 336 332 342 353 358 4 18 27 31 40 51 60 63 61 63 70 69 66 68 67 53 72 85 99 117 128
322 329 352 85 106 70 15 351 314 325 332 314 314 344 338 341 330 336 335 346 356 0 7 11 29 40 37 45 57 69 75 77 83 85 95 91 86 87 85 66 69 62 63 51
307 8 338 45 354 26 3 312 329 328 304 325 7 340 349 335 327 343 347 352 1 14 21 30 41 43 42 59 77 77 90 109 111 95 101 105 107 107 90 85 86 79 42 65
35 57 75 63 304 31 346 333 326 312 357 350 14 8 356 337 345 352 357 6 3 28 35 46 52 50 45 48 62 59 50 50 110 127 117 95 89 93 97 95 95 95 90 59
4 129 55 357 45 9 340 328 336 348 349 355 11 33 351 350 359 7 21 17 23 36 43 49 64 51 38 53 47 34 29 37 95 107 116 116 114 115 121 124 115 99 94 105
11 343 340 341 32 343 325 312 325 350 337 19 36 60 8 360 5 37 36 33 41 38 37 62 63 54 43 93 73 47 54 35 336 77 73 74 65 66 68 70 72 71 66 58
42 64 57 12 333 332 352 334 280 309 15 72 61 68 31 22 37 34 37 37 62 52 46 47 41 60 42 315 1 178 120 34 102 98 103 101 99 101 102 102 101 98 86 62
32 75 252 240 125 358 304 309 310 94 29 112 89 76 21 59 48 66 44 37 62 60 42 55 58 59 217 243 224 209 122 89 97 102 110 122 114 113 106 94 87 80 77 75
67 149 268 260 153 251 288 215 280 92 78 113 110 102 81 64 80 78 68 70 64 76 88 105 176 189 211 267 294 41 94 78 72 70 72 74 75 75 73 72 81 81 81 80
109 208 264 237 297 37 319 262 164 132 91 112 115 105 93 73 92 54 114 90 86 126 148 214 191 211 231 329 283 94 99 97 98 96 92 87 84 81 80 80 84 84 84 83
104 296 16 52 8 327 290 120 111 117 109 114 117 123 131 115 104 42 59 101 165 233 204 199 209 345 333 327 241 98 91 86 85 86 87 88 86 86 86 83 82 80 78 77
113 69 93 61 25 337 319 111 120 125 127 137 145 153 156 178 181 160 105 181 196 175 197 182 29 334 314 298 85 84 81 82 83 84 85 88 89 85 85 89 87 84 83 81
126 97 95 88 75 79 90 105 120 131 149 165 163 174 180 193 225 228 100 101 121 220 170 43 316 304 306 106 100 101 94 85 80 79 82 92 104 102 90 83 87 93 100 108
105 119 107 111 103 98 103 113 114 132 163 176 182 200 228 228 122 123 130 147 180 188 138 206 251 266 225 96 98 94 90 90 97 97 92 90 92 96 98 97 93 93 93 87
120 124 94 97 154 139 147 168 207 193 186 172 184 187 168 117 126 146 164 172 169 181 135 80 61 80 68 72 80 91 107 114 91 89 96 86 81 90 111 126 108 91 91 96
128 32 90 37 166 140 143 147 168 156 131 133 138 140 142 143 146 149 160 163 156 132 133 120 98 98 102 89 78 71 71 65 69 92 95 105 116 110 94 91 100 113 117 131